NOAA 16 DEB, 41267

Orbit data source: Space-Track

NOAA 16 DEB, 41267 is space debris in SSO originally from a launch on Thu, 21 Sep 2000 UTC launched from the Air Force Western Test Range (AFWTR). Debris objects in space refer to the collection of defunct objects orbiting the Earth. Examples of debris include non-operational satellites, rocket bodies, and fragments generated from explosions, collisions, or faulty payload assembly.

Loading next visibility...
Identifier
41267, 2000-055FT
Orbit
SSO
Country
Flag of USUS
Related business
Manufacturer
Unknown
Mission
Spacecraft
Bus & Motor
Unknown
Mass
Unknown
Launch date (UTC)
2000-09-21 (25 years ago)
Launch vehicle
Unknown
Launch site
Air Force Western Test Range (AFWTR)
Object type
Payload
Rocket body
Debris
Shape & HBR
Unknown shape, 0.1 m
Radar Cross Section
Small (<0.1 m²)

Expand to show TLE details & history
Last TLE update: 5 hours ago

TLE from 5 hours ago
0 NOAA 16 DEB
1 41267U 00055FT  26037.44832837  .00064004  00000-0  62985-2 0  9993
2 41267  98.8025 222.2653 0021945 334.1238  25.8878 14.91609879531462
Epoch: 2026-02-06T10:45Z
TLE epoch observation values (Epoch: 2026-02-06T10:45:35.571Z)
Latitude
-0.00003°
Longitude
-75.71897°
Altitude
582.165 km
Speed
7.577 km/s
True Right ascension
14h 49m 03s
True Declination
0° 00' 00"
Sunlit
Object was in daylight at epoch
Visualization orbit readout
Latitude
Unknown
Longitude
Unknown
Altitude
Unknown
Speed
Unknown
Apparent Right ascension
Unknown
Apparent Declination
Unknown
Sunlit
N/A
Visualization observer readout
Local Sidereal Time
18:17:23
Azimuth
Unknown
Elevation
Unknown
Doppler factor
Unknown
Orbital elements
Apogee altitude
605.275 km
Perigee altitude
574.692 km
Semi-major axis
6,968.121 km
Eccentricity
0.00219
Inclination
98.8025°
RAAN
222.2653°
Arg. of periapsis
334.1238°
True anomaly
25.99787°
Mean anomaly
25.8878°
Eccentric anomaly
25.94281°
Mean motion
3.73138 °/min
Orbital period
96.48 mins
BSTAR
0.0062985
Loading maneuver chart data...
Computing Atmospheric mass density...
Loading historical data...
Loading historical data...
Loading historical data...
Loading historical data...
Loading historical data...
Loading historical data...
Loading historical data...

Documentation

Showing up to 5 results
|